Weather History for PADU - May, 2014

Change the Weather History Date:

Monday, May 5, 2014

  Actual Average Record
Temperature  
Mean Temperature 38 °F -  
Max Temperature 39 °F 42 °F 55 °F (2004)
Min Temperature 37 °F 35 °F 26 °F (2012)
Degree Days  
Heating Degree Days 27    
Moisture  
Dew Point 33 °F    
Average Humidity 81    
Maximum Humidity 87    
Minimum Humidity 73    
Precipitation  
Precipitation 0.24 in - - ()
Sea Level Pressure  
Sea Level Pressure 29.89 in    
Wind  
Wind Speed 11 mph (NE)    
Max Wind Speed 20 mph    
Max Gust Speed 36 mph    
Visibility 8 miles    
Events Rain , Snow    
Averages and records for this station are not official NWS values.
T = Trace of Precipitation, MM = Missing Value Source: NWS Daily Summary

Daily Weather History Graph

Daily Weather History Graph

Search for Another Location

Airport or City:

Trip Planner

Search our weather history database for the weather conditions in past years. The results will help you decide how hot, cold, wet, or windy it might be!

Date:

Astronomy

May. 05, 2014 Rise Set
Actual Time 7:21 AM AKDT 10:45 PM AKDT
Civil Twilight 6:39 AM AKDT 11:28 PM AKDT
Nautical Twilight 5:41 AM AKDT 12:26 AM AKDT
Astronomical Twilight 4:17 AM AKDT 1:53 AM AKDT
Moon 12:58 PM AKDT (5/5) 3:33 AM AKDT (5/5)
Length of Visible Light 16h 49m
Length of Day
15h 23m
Waxing Crescent, 38% of the Moon is Illuminated
May 5
Waxing Crescent
May 6
First Quarter
May 14
Full
May 21
Last Quarter
May 28
New

Hourly Weather History & Observations

Time (AKDT) Temp. Windchill Dew Point Humidity Pressure Visibility Wind Dir Wind Speed Gust Speed Precip Events Conditions
12:56 AM 39.0 °F 31.4 °F 34.0 °F 82% 30.02 in 10.0 mi NE 12.7 mph 23.0 mph 0.00 in   Overcast
1:56 AM 39.0 °F 32.8 °F 33.1 °F 79% 30.01 in 10.0 mi NE 9.2 mph 16.1 mph 0.00 in Rain Light Rain
2:39 AM 37.4 °F 28.9 °F 33.8 °F 87% 29.97 in 9.0 mi East 13.8 mph 29.9 mph 0.01 in Rain Light Rain
2:56 AM 37.9 °F 31.5 °F 33.1 °F 83% 29.99 in 10.0 mi East 9.2 mph 16.1 mph 0.01 in Rain Light Rain
3:18 AM 37.4 °F 30.8 °F 33.8 °F 87% 29.97 in 6.0 mi East 9.2 mph 24.2 mph 0.00 in Rain Light Rain
4:24 AM 37.4 °F 32.1 °F 32.0 °F 81% 29.95 in 9.0 mi Variable 6.9 mph 29.9 mph 0.00 in Rain Light Rain
4:36 AM 37.4 °F 30.8 °F 33.8 °F 87% 29.96 in 6.0 mi North 9.2 mph 25.3 mph 0.00 in Rain Light Rain
4:56 AM 37.9 °F 30.9 °F 32.0 °F 79% 29.96 in 8.0 mi ENE 10.4 mph 32.2 mph 0.00 in Rain Light Rain
5:40 AM 37.4 °F 28.2 °F 30.2 °F 75% 29.94 in 10.0 mi ENE 16.1 mph 31.1 mph 0.01 in   Overcast
6:15 AM 37.4 °F 30.8 °F 30.2 °F 75% 29.94 in 10.0 mi NE 9.2 mph 25.3 mph 0.00 in Rain Light Rain
6:31 AM 37.4 °F 27.8 °F 30.2 °F 75% 29.93 in 10.0 mi ENE 17.3 mph 35.7 mph 0.00 in Rain Light Rain
6:56 AM 37.0 °F 28.9 °F 30.9 °F 79% 29.94 in 10.0 mi North 12.7 mph 26.5 mph 0.00 in   Overcast
7:21 AM 37.4 °F 30.8 °F 32.0 °F 81% 29.92 in 10.0 mi East 9.2 mph 16.1 mph 0.00 in Rain Light Rain
7:56 AM 37.0 °F 29.3 °F 32.0 °F 82% 29.93 in 10.0 mi East 11.5 mph 23.0 mph 0.00 in Rain Light Rain
8:56 AM 37.0 °F 31.6 °F 30.9 °F 79% 29.92 in 8.0 mi Variable 6.9 mph 31.1 mph 0.00 in Rain Light Rain
9:08 AM 37.4 °F 33.8 °F 30.2 °F 75% 29.90 in 10.0 mi Variable 4.6 mph 25.3 mph 0.00 in Rain Light Rain
9:52 AM 37.4 °F 30.3 °F 32.0 °F 81% 29.90 in 4.0 mi ENE 10.4 mph 34.5 mph 0.01 in Rain , Snow Light Rain
9:56 AM 37.9 °F 30.0 °F 32.0 °F 79% 29.92 in 8.0 mi NNE 12.7 mph 34.5 mph 0.01 in Rain , Snow Light Rain
9:59 AM 37.4 °F 28.5 °F 32.0 °F 81% 29.90 in 9.0 mi NE 15.0 mph 26.5 mph 0.00 in Rain , Snow Light Rain
10:56 AM 39.0 °F 30.6 °F 30.9 °F 73% 29.91 in 10.0 mi NE 15.0 mph 34.5 mph 0.00 in   Overcast
11:56 AM 39.0 °F 29.9 °F 30.9 °F 73% 29.90 in 10.0 mi NE 17.3 mph 34.5 mph 0.01 in   Overcast
12:56 PM 39.0 °F 32.3 °F 30.9 °F 73% 29.88 in 10.0 mi NNE 10.4 mph 32.2 mph N/A   Overcast
1:56 PM 39.0 °F 31.4 °F 32.0 °F 76% 29.87 in 10.0 mi NE 12.7 mph 24.2 mph N/A   Overcast
2:56 PM 39.0 °F 29.9 °F 32.0 °F 76% 29.85 in 9.0 mi North 17.3 mph 28.8 mph N/A   Overcast
3:56 PM 37.9 °F 28.9 °F 32.0 °F 79% 29.85 in 10.0 mi NE 16.1 mph 31.1 mph N/A   Overcast
4:18 PM 37.4 °F 32.1 °F 33.8 °F 87% 29.83 in 8.0 mi Variable 6.9 mph 27.6 mph N/A   Overcast
4:56 PM 37.9 °F 30.0 °F 33.1 °F 83% 29.84 in 4.0 mi NE 12.7 mph 33.4 mph N/A   Haze
5:26 PM 37.4 °F 29.8 °F 33.8 °F 87% 29.82 in 6.0 mi East 11.5 mph 24.2 mph 0.00 in Rain Light Rain
5:56 PM 37.9 °F 30.9 °F 34.0 °F 86% 29.83 in 6.0 mi NNE 10.4 mph 25.3 mph 0.00 in Rain Light Rain
6:56 PM 37.9 °F 31.5 °F 34.0 °F 86% 29.81 in 6.0 mi North 9.2 mph 27.6 mph 0.00 in Rain Light Rain
7:56 PM 37.9 °F 27.9 °F 34.0 °F 86% 29.81 in 6.0 mi NE 19.6 mph 35.7 mph 0.00 in Rain Light Rain
8:08 PM 37.4 °F 29.3 °F 33.8 °F 87% 29.80 in 6.0 mi NE 12.7 mph 33.4 mph 0.00 in Rain Light Rain
8:56 PM 37.9 °F 32.1 °F 33.1 °F 83% 29.82 in 5.0 mi North 8.1 mph 23.0 mph 0.02 in Rain Rain
9:15 PM 37.4 °F 30.8 °F 33.8 °F 87% 29.81 in 4.0 mi NE 9.2 mph 24.2 mph 0.03 in Rain Rain
9:40 PM 37.4 °F 30.8 °F 33.8 °F 87% 29.81 in 6.0 mi ENE 9.2 mph 19.6 mph 0.06 in Rain Light Rain
9:56 PM 37.9 °F 28.2 °F 34.0 °F 86% 29.81 in 6.0 mi East 18.4 mph 33.4 mph 0.08 in Rain Rain
10:56 PM 37.9 °F 32.7 °F 34.0 °F 86% 29.83 in 6.0 mi Variable 6.9 mph 27.6 mph 0.06 in Rain Light Rain
11:56 PM 37.9 °F 32.7 °F 34.0 °F 86% 29.84 in 7.0 mi Variable 6.9 mph 26.5 mph 0.05 in Rain Light Rain